RYR45TM EGSS-EDDH

Flight info

Callsign RYR45TM
Flight time 1h 5m
Altitude 37000
Route CLN P44 SOMVA DCT MAVAS DCT ANDIK M105 RIBSO RIBSO3P
Aircraft B38M/M-SDE1FGHILORVWXY/HB1

Departure

Time 2026-04-22 08:21
Airport London Stansted Airport (EGSS)

Arrival

Time 2026-04-22 09:27
Airport Hamburg Helmut Schmidt Airport (EDDH)
Time Latitude Longitude Altitude Speed Heading
2026-04-22 08:03 51.89057 0.25660 324 ft 0 kts 43°
2026-04-22 08:11 51.89044 0.25641 358 ft 4 kts 43°
2026-04-22 08:11 51.89028 0.25619 356 ft 4 kts 21°
2026-04-22 08:12 51.89008 0.25623 354 ft 4 kts 317°
2026-04-22 08:12 51.88991 0.25652 356 ft 3 kts 313°
2026-04-22 08:12 51.88989 0.25655 355 ft 0 kts 313°
2026-04-22 08:15 51.88990 0.25653 360 ft 1 kts 313°
2026-04-22 08:15 51.89004 0.25629 358 ft 4 kts 313°
2026-04-22 08:16 51.89032 0.25581 356 ft 7 kts 313°
2026-04-22 08:16 51.89074 0.25508 353 ft 10 kts 313°
2026-04-22 08:16 51.89129 0.25412 355 ft 13 kts 313°
2026-04-22 08:16 51.89188 0.25282 354 ft 16 kts 297°
2026-04-22 08:17 51.89242 0.25128 351 ft 12 kts 262°
2026-04-22 08:17 51.89179 0.24981 351 ft 20 kts 223°
2026-04-22 08:17 51.89056 0.24800 354 ft 26 kts 223°
2026-04-22 08:17 51.88919 0.24595 351 ft 25 kts 223°
2026-04-22 08:18 51.88784 0.24390 357 ft 28 kts 222°
2026-04-22 08:18 51.88648 0.24187 354 ft 26 kts 223°
2026-04-22 08:18 51.88509 0.23978 355 ft 29 kts 223°
2026-04-22 08:18 51.88366 0.23765 355 ft 28 kts 223°
2026-04-22 08:19 51.88226 0.23555 360 ft 27 kts 223°
2026-04-22 08:19 51.88084 0.23342 354 ft 28 kts 223°
2026-04-22 08:19 51.87940 0.23129 355 ft 31 kts 223°
2026-04-22 08:19 51.87820 0.22941 351 ft 14 kts 239°
2026-04-22 08:20 51.87842 0.22840 353 ft 3 kts 313°
2026-04-22 08:20 51.87871 0.22793 351 ft 4 kts 314°
2026-04-22 08:20 51.87938 0.22684 347 ft 16 kts 329°
2026-04-22 08:20 51.88018 0.22756 342 ft 19 kts 42°
2026-04-22 08:21 51.88201 0.23034 337 ft 74 kts 43°
2026-04-22 08:21 51.88796 0.23928 353 ft 156 kts 44°
2026-04-22 08:21 51.89631 0.25183 1145 ft 165 kts 44°
2026-04-22 08:21 51.90484 0.26390 2367 ft 153 kts 49°
2026-04-22 08:22 51.91279 0.27639 2925 ft 168 kts 53°
2026-04-22 08:22 51.91784 0.29350 2986 ft 176 kts 87°
2026-04-22 08:22 51.91532 0.31363 3078 ft 193 kts 110°
2026-04-22 08:22 51.90976 0.33451 3142 ft 207 kts 111°
2026-04-22 08:23 51.90386 0.35606 3222 ft 212 kts 111°
2026-04-22 08:23 51.89776 0.37804 3411 ft 216 kts 112°
2026-04-22 08:23 51.89159 0.40007 4215 ft 215 kts 112°
2026-04-22 08:23 51.88511 0.42246 4871 ft 224 kts 113°
2026-04-22 08:24 51.87850 0.44515 5819 ft 222 kts 113°
2026-04-22 08:24 51.87183 0.46806 6306 ft 227 kts 113°
2026-04-22 08:24 51.86509 0.49109 6301 ft 227 kts 114°
2026-04-22 08:24 51.85808 0.51499 6842 ft 242 kts 114°
2026-04-22 08:25 51.85066 0.54027 7429 ft 253 kts 114°
2026-04-22 08:25 51.84320 0.56562 8338 ft 253 kts 114°
2026-04-22 08:25 51.83545 0.59201 9110 ft 261 kts 114°
2026-04-22 08:25 51.83044 0.61967 9909 ft 261 kts 94°
2026-04-22 08:26 51.83068 0.64935 10640 ft 269 kts 88°
2026-04-22 08:26 51.83156 0.68087 11090 ft 285 kts 88°
2026-04-22 08:26 51.83271 0.71325 11555 ft 300 kts 88°
2026-04-22 08:26 51.83385 0.74736 12273 ft 305 kts 88°
2026-04-22 08:27 51.83510 0.78180 13126 ft 309 kts 87°
2026-04-22 08:27 51.83638 0.81675 13934 ft 314 kts 87°
2026-04-22 08:27 51.83769 0.85219 14722 ft 319 kts 88°
2026-04-22 08:27 51.83904 0.88823 15513 ft 322 kts 87°
2026-04-22 08:28 51.84040 0.92466 16308 ft 326 kts 87°
2026-04-22 08:28 51.84176 0.96149 17072 ft 331 kts 87°
2026-04-22 08:28 51.84313 0.99878 17839 ft 334 kts 87°
2026-04-22 08:28 51.84450 1.03651 18580 ft 338 kts 87°
2026-04-22 08:29 51.84588 1.07470 19208 ft 342 kts 87°
2026-04-22 08:29 51.84726 1.11317 19846 ft 345 kts 87°
2026-04-22 08:29 51.85072 1.15174 20424 ft 349 kts 72°
2026-04-22 08:29 51.85678 1.17594 20842 ft 351 kts 68°
2026-04-22 08:30 51.86638 1.21252 21400 ft 356 kts 68°
2026-04-22 08:30 51.87617 1.24961 21981 ft 360 kts 68°
2026-04-22 08:30 51.88613 1.28693 22564 ft 364 kts 67°
2026-04-22 08:30 51.89626 1.32476 23136 ft 368 kts 67°
2026-04-22 08:31 51.90650 1.36297 23713 ft 372 kts 67°
2026-04-22 08:31 51.91684 1.40158 24228 ft 375 kts 67°
2026-04-22 08:31 51.93774 1.47978 25199 ft 382 kts 66°
2026-04-22 08:32 51.94830 1.51941 25671 ft 385 kts 66°
2026-04-22 08:32 51.95896 1.55949 26161 ft 388 kts 66°
2026-04-22 08:32 51.96967 1.59985 26613 ft 392 kts 66°
2026-04-22 08:32 51.98046 1.64054 27090 ft 394 kts 66°
2026-04-22 08:33 51.99157 1.68143 27531 ft 397 kts 62°
2026-04-22 08:33 52.00496 1.72082 27982 ft 400 kts 60°
2026-04-22 08:33 52.01835 1.76063 28419 ft 404 kts 61°
2026-04-22 08:33 52.03172 1.80093 28842 ft 407 kts 61°
2026-04-22 08:34 52.04508 1.84155 29257 ft 410 kts 61°
2026-04-22 08:34 52.05850 1.88254 29693 ft 413 kts 62°
2026-04-22 08:34 52.07201 1.92390 30110 ft 415 kts 62°
2026-04-22 08:34 52.08571 1.96539 30511 ft 418 kts 61°
2026-04-22 08:35 52.09954 2.00715 30861 ft 420 kts 61°
2026-04-22 08:35 52.11339 2.04908 31221 ft 422 kts 61°
2026-04-22 08:35 52.12729 2.09128 31557 ft 425 kts 61°
2026-04-22 08:35 52.14129 2.13386 31888 ft 427 kts 61°
2026-04-22 08:36 52.15532 2.17655 32232 ft 429 kts 61°
2026-04-22 08:36 52.16944 2.21962 32557 ft 432 kts 61°
2026-04-22 08:36 52.18359 2.26287 32869 ft 434 kts 60°
2026-04-22 08:36 52.19781 2.30642 33193 ft 436 kts 60°
2026-04-22 08:37 52.21208 2.35019 33517 ft 439 kts 60°
2026-04-22 08:37 52.22643 2.39428 33835 ft 441 kts 60°
2026-04-22 08:37 52.24077 2.43840 34201 ft 441 kts 60°
2026-04-22 08:37 52.25514 2.48273 34606 ft 441 kts 60°
2026-04-22 08:38 52.26943 2.52687 34937 ft 441 kts 60°
2026-04-22 08:38 52.28357 2.57062 35247 ft 441 kts 60°
2026-04-22 08:38 52.29806 2.61550 35579 ft 441 kts 60°
2026-04-22 08:38 52.31031 2.66146 35887 ft 443 kts 72°
2026-04-22 08:39 52.31850 2.70927 36223 ft 443 kts 72°
2026-04-22 08:39 52.32722 2.75758 36472 ft 444 kts 72°
2026-04-22 08:39 52.33583 2.80617 36756 ft 445 kts 72°
2026-04-22 08:39 52.34438 2.85475 37061 ft 445 kts 72°
2026-04-22 08:40 52.35290 2.90341 37333 ft 445 kts 72°
2026-04-22 08:40 52.36986 3.00073 37393 ft 443 kts 72°
2026-04-22 08:41 52.38667 3.09766 37390 ft 443 kts 72°
2026-04-22 08:41 52.40338 3.19462 37402 ft 442 kts 72°
2026-04-22 08:42 52.41998 3.29147 37404 ft 441 kts 72°
2026-04-22 08:42 52.43648 3.38826 37404 ft 441 kts 72°
2026-04-22 08:43 52.45289 3.48500 37410 ft 440 kts 72°
2026-04-22 08:43 52.46920 3.58176 37404 ft 440 kts 73°
2026-04-22 08:44 52.48542 3.67849 37415 ft 440 kts 73°
2026-04-22 08:44 52.50153 3.77512 37410 ft 439 kts 73°
2026-04-22 08:45 52.51756 3.87181 37407 ft 439 kts 73°
2026-04-22 08:45 52.53348 3.96840 37411 ft 438 kts 73°
2026-04-22 08:46 52.54933 4.06504 37411 ft 438 kts 73°
2026-04-22 08:46 52.56508 4.16168 37412 ft 437 kts 73°
2026-04-22 08:47 52.58072 4.25820 37412 ft 437 kts 73°
2026-04-22 08:47 52.59628 4.35474 37412 ft 436 kts 73°
2026-04-22 08:48 52.61174 4.45123 37410 ft 436 kts 73°
2026-04-22 08:48 52.62709 4.54765 37408 ft 436 kts 73°
2026-04-22 08:49 52.64227 4.64345 37411 ft 435 kts 73°
2026-04-22 08:49 52.65745 4.73995 37419 ft 435 kts 73°
2026-04-22 08:50 52.67256 4.83646 37422 ft 435 kts 73°
2026-04-22 08:50 52.68760 4.93308 37419 ft 435 kts 74°
2026-04-22 08:51 52.70254 5.02963 37425 ft 435 kts 74°
2026-04-22 08:51 52.71740 5.12617 37422 ft 434 kts 74°
2026-04-22 08:52 52.73220 5.22279 37420 ft 434 kts 74°
2026-04-22 08:52 52.75062 5.31725 37415 ft 432 kts 68°
2026-04-22 08:53 52.77117 5.41059 37416 ft 432 kts 69°
2026-04-22 08:53 52.79129 5.50419 37417 ft 432 kts 69°
2026-04-22 08:54 52.81126 5.59778 37422 ft 432 kts 69°
2026-04-22 08:54 52.83115 5.69140 37425 ft 432 kts 69°
2026-04-22 08:55 52.85095 5.78507 37420 ft 431 kts 69°
2026-04-22 08:55 52.87068 5.87881 37421 ft 431 kts 69°
2026-04-22 08:56 52.89030 5.97252 37423 ft 430 kts 69°
2026-04-22 08:56 52.90968 6.06546 37420 ft 430 kts 69°
2026-04-22 08:57 52.92912 6.15913 37419 ft 430 kts 69°
2026-04-22 08:57 52.94846 6.25279 37427 ft 429 kts 69°
2026-04-22 08:58 52.96770 6.34636 37428 ft 429 kts 70°
2026-04-22 08:58 52.98685 6.43998 37428 ft 428 kts 70°
2026-04-22 08:59 53.00592 6.53360 37429 ft 428 kts 70°
2026-04-22 08:59 53.02487 6.62714 37432 ft 427 kts 70°
2026-04-22 09:00 53.04375 6.72073 37433 ft 427 kts 70°
2026-04-22 09:00 53.06253 6.81427 37429 ft 426 kts 70°
2026-04-22 09:01 53.08124 6.90791 37430 ft 426 kts 70°
2026-04-22 09:01 53.09986 7.00157 37424 ft 426 kts 70°
2026-04-22 09:02 53.11840 7.09508 37421 ft 426 kts 70°
2026-04-22 09:02 53.13687 7.18882 37418 ft 425 kts 70°
2026-04-22 09:03 53.15524 7.28232 37421 ft 425 kts 70°
2026-04-22 09:03 53.17357 7.37604 37170 ft 424 kts 70°
2026-04-22 09:03 53.18268 7.42278 36482 ft 424 kts 70°
2026-04-22 09:04 53.19166 7.46898 35807 ft 425 kts 70°
2026-04-22 09:04 53.20075 7.51580 35179 ft 424 kts 70°
2026-04-22 09:04 53.20992 7.56323 34541 ft 423 kts 70°
2026-04-22 09:04 53.21896 7.61001 33725 ft 424 kts 70°
2026-04-22 09:05 53.22798 7.65682 33017 ft 422 kts 70°
2026-04-22 09:05 53.23687 7.70306 32592 ft 414 kts 70°
2026-04-22 09:05 53.24546 7.74781 32158 ft 407 kts 70°
2026-04-22 09:05 53.25403 7.79260 31640 ft 403 kts 70°
2026-04-22 09:06 53.26249 7.83694 31125 ft 398 kts 70°
2026-04-22 09:06 53.27084 7.88075 30624 ft 394 kts 71°
2026-04-22 09:06 53.27908 7.92411 30067 ft 389 kts 71°
2026-04-22 09:06 53.28720 7.96692 29545 ft 384 kts 71°
2026-04-22 09:07 53.29517 8.00903 29071 ft 377 kts 71°
2026-04-22 09:07 53.30301 8.05056 28596 ft 372 kts 71°
2026-04-22 09:07 53.31075 8.09167 28127 ft 371 kts 71°
2026-04-22 09:07 53.31755 8.13339 27267 ft 375 kts 79°
2026-04-22 09:08 53.31970 8.17701 26316 ft 373 kts 81°
2026-04-22 09:08 53.32269 8.21962 25469 ft 367 kts 80°
2026-04-22 09:08 53.32587 8.26163 24658 ft 361 kts 80°
2026-04-22 09:08 53.32912 8.30287 23854 ft 355 kts 79°
2026-04-22 09:09 53.33238 8.34349 22963 ft 350 kts 79°
2026-04-22 09:09 53.33560 8.38336 22225 ft 342 kts 79°
2026-04-22 09:09 53.33876 8.42230 21882 ft 336 kts 79°
2026-04-22 09:09 53.34182 8.46021 21565 ft 340 kts 79°
2026-04-22 09:10 53.34500 8.49965 21139 ft 343 kts 79°
2026-04-22 09:10 53.34817 8.53922 20690 ft 343 kts 79°
2026-04-22 09:10 53.35133 8.57878 20232 ft 342 kts 79°
2026-04-22 09:10 53.35446 8.61810 19773 ft 340 kts 79°
2026-04-22 09:11 53.35756 8.65727 19311 ft 339 kts 80°
2026-04-22 09:11 53.36063 8.69631 18851 ft 338 kts 80°
2026-04-22 09:11 53.36370 8.73534 18349 ft 338 kts 80°
2026-04-22 09:11 53.36674 8.77429 17862 ft 337 kts 80°
2026-04-22 09:12 53.36977 8.81316 17388 ft 336 kts 80°
2026-04-22 09:12 53.37276 8.85180 16938 ft 334 kts 80°
2026-04-22 09:12 53.37574 8.89039 16487 ft 333 kts 80°
2026-04-22 09:12 53.37870 8.92884 16033 ft 332 kts 81°
2026-04-22 09:13 53.38163 8.96714 15585 ft 331 kts 81°
2026-04-22 09:13 53.38453 9.00537 15139 ft 330 kts 81°
2026-04-22 09:13 53.38739 9.04296 14690 ft 329 kts 81°
2026-04-22 09:13 53.39028 9.08126 14224 ft 326 kts 81°
2026-04-22 09:14 53.39310 9.11878 13740 ft 323 kts 81°
2026-04-22 09:14 53.39588 9.15596 13278 ft 320 kts 81°
2026-04-22 09:14 53.39861 9.19262 12910 ft 314 kts 81°
2026-04-22 09:14 53.40130 9.22882 12522 ft 314 kts 81°
2026-04-22 09:15 53.40399 9.26532 12078 ft 317 kts 81°
2026-04-22 09:15 53.40665 9.30146 11642 ft 318 kts 81°
2026-04-22 09:15 53.40934 9.33812 11280 ft 314 kts 81°
2026-04-22 09:15 53.41195 9.37386 11134 ft 304 kts 81°
2026-04-22 09:16 53.41446 9.40836 10953 ft 293 kts 81°
2026-04-22 09:16 53.41687 9.44170 10784 ft 284 kts 81°
2026-04-22 09:16 53.41920 9.47395 10610 ft 274 kts 81°
2026-04-22 09:16 53.42144 9.50512 10394 ft 266 kts 81°
2026-04-22 09:17 53.42355 9.53458 10051 ft 265 kts 81°
2026-04-22 09:17 53.42574 9.56528 9661 ft 265 kts 82°
2026-04-22 09:17 53.42790 9.59580 9304 ft 263 kts 81°
2026-04-22 09:17 53.43006 9.62619 8946 ft 262 kts 81°
2026-04-22 09:18 53.43220 9.65654 8592 ft 261 kts 81°
2026-04-22 09:18 53.43360 9.67649 8379 ft 260 kts 81°
2026-04-22 09:18 53.43571 9.70652 8034 ft 259 kts 81°
2026-04-22 09:18 53.43780 9.73641 7714 ft 256 kts 81°
2026-04-22 09:19 53.43985 9.76584 7411 ft 253 kts 81°
2026-04-22 09:19 53.44187 9.79517 7070 ft 253 kts 81°
2026-04-22 09:19 53.44389 9.82436 6733 ft 252 kts 81°
2026-04-22 09:19 53.44589 9.85343 6370 ft 249 kts 81°
2026-04-22 09:20 53.44782 9.88192 6092 ft 241 kts 82°
2026-04-22 09:20 53.44972 9.90949 5946 ft 239 kts 82°
2026-04-22 09:20 53.45162 9.93729 5785 ft 240 kts 82°
2026-04-22 09:20 53.45265 9.96534 5559 ft 243 kts 95°
2026-04-22 09:21 53.44613 9.99121 5225 ft 246 kts 127°
2026-04-22 09:21 53.43339 10.01042 4932 ft 247 kts 136°
2026-04-22 09:21 53.42453 10.03433 4480 ft 242 kts 100°
2026-04-22 09:21 53.42632 10.06113 4170 ft 229 kts 61°
2026-04-22 09:22 53.43688 10.08046 3958 ft 227 kts 37°
2026-04-22 09:22 53.45009 10.09554 3658 ft 231 kts 28°
2026-04-22 09:22 53.46500 10.10487 3392 ft 228 kts 11°
2026-04-22 09:22 53.48052 10.11028 3206 ft 226 kts 11°
2026-04-22 09:23 53.49569 10.11055 3010 ft 217 kts 343°
2026-04-22 09:23 53.50914 10.10006 2885 ft 212 kts 333°
2026-04-22 09:23 53.52240 10.08887 2494 ft 214 kts 333°
2026-04-22 09:23 53.53537 10.07763 2140 ft 204 kts 332°
2026-04-22 09:24 53.54749 10.06712 1850 ft 188 kts 333°
2026-04-22 09:24 53.55858 10.05774 1643 ft 171 kts 332°
2026-04-22 09:24 53.56872 10.04909 1408 ft 152 kts 332°
2026-04-22 09:24 53.57740 10.04162 1193 ft 134 kts 332°
2026-04-22 09:25 53.58560 10.03451 1044 ft 133 kts 332°
2026-04-22 09:25 53.59419 10.02702 927 ft 144 kts 332°
2026-04-22 09:25 53.60308 10.01974 655 ft 143 kts 329°
2026-04-22 09:25 53.61172 10.01221 471 ft 135 kts 329°
2026-04-22 09:26 53.62002 10.00499 256 ft 134 kts 328°
2026-04-22 09:26 53.62819 9.99788 94 ft 132 kts 329°
2026-04-22 09:26 53.63538 9.99157 52 ft 84 kts 334°
2026-04-22 09:26 53.63939 9.98817 50 ft 61 kts 334°
2026-04-22 09:27 53.64308 9.98500 52 ft 58 kts 334°
2026-04-22 09:27 53.64615 9.98375 55 ft 39 kts
2026-04-22 09:27 53.64678 9.98399 54 ft 3 kts 24°
2026-04-22 09:27 53.64697 9.98438 54 ft 6 kts 66°
2026-04-22 09:28 53.64681 9.98516 52 ft 9 kts 147°
2026-04-22 09:28 53.64618 9.98572 53 ft 12 kts 152°
2026-04-22 09:28 53.64535 9.98645 52 ft 15 kts 153°
2026-04-22 09:28 53.64431 9.98735 52 ft 18 kts 153°
2026-04-22 09:29 53.64311 9.98836 51 ft 20 kts 153°
2026-04-22 09:29 53.64178 9.98953 53 ft 24 kts 152°
2026-04-22 09:29 53.64017 9.99091 51 ft 28 kts 153°
2026-04-22 09:29 53.63837 9.99247 49 ft 27 kts 148°
2026-04-22 09:30 53.63713 9.99464 53 ft 23 kts 126°
2026-04-22 09:30 53.63613 9.99698 50 ft 26 kts 126°
2026-04-22 09:30 53.63512 9.99931 49 ft 24 kts 126°
2026-04-22 09:30 53.63476 10.00012 52 ft 2 kts 126°
2026-04-22 09:31 53.63459 10.00052 52 ft 7 kts 126°
2026-04-22 09:31 53.63416 10.00150 51 ft 14 kts 126°
2026-04-22 09:31 53.63306 10.00204 53 ft 21 kts 176°
2026-04-22 09:31 53.63149 10.00221 53 ft 23 kts 176°
2026-04-22 09:32 53.63037 10.00185 48 ft 12 kts 212°
2026-04-22 09:32 53.63000 10.00196 48 ft 4 kts 136°
2026-04-22 09:32 53.62978 10.00252 53 ft 6 kts 120°
2026-04-22 09:32 53.62970 10.00276 47 ft 0 kts 121°
2026-04-22 09:33 53.62968 10.00281 47 ft 0 kts 121°
2026-04-22 09:35 53.62968 10.00280 47 ft 0 kts 121°